Meridian, MS

12:42 PM CDT on October 20, 2019 (GMT -0500)
Key

Weather History for KMEI - August, 2019

Change the Weather History Date:

Tuesday, August 6, 2019

  Actual Average Record
Temperature  
Mean Temperature 85 °F 81 °F  
Max Temperature 96 °F 92 °F 102 °F (1951)
Min Temperature 73 °F 70 °F 60 °F (1948)
Degree Days  
Heating Degree Days 0 0  
Month to date heating degree days 0 0  
Since 1 June heating degree days 0 0  
Since 1 July heating degree days 0 0  
Cooling Degree Days 20 16  
Month to date cooling degree days 109 96  
Year to date cooling degree days 1624 1243  
Since 1 June cooling degree days 1128 960  
Growing Degree Days 34 (Base 50)    
Moisture  
Dew Point 73 °F    
Average Humidity 70    
Maximum Humidity 94    
Minimum Humidity 46    
Precipitation  
Precipitation 0.00 in 0.15 in 3.15 in (1931)
Month to date precipitation 2.10 0.90  
Year to date precipitation 40.68 35.87  
Sea Level Pressure  
Sea Level Pressure 29.94 in    
Wind  
Wind Speed 3 mph (West)    
Max Wind Speed 13 mph    
Max Gust Speed 15 mph    
Visibility 10 miles    
Events      
T = Trace of Precipitation, MM = Missing Value Source: NWS Daily Summary

Daily Weather History Graph

Daily Weather History Graph

Search for Another Location

Airport or City:

Astronomy

Aug. 06, 2019 Rise Set
Actual Time 6:12 AM CDT 7:48 PM CDT
Civil Twilight 5:46 AM CDT 8:14 PM CDT
Nautical Twilight 5:14 AM CDT 8:46 PM CDT
Astronomical Twilight 4:41 AM CDT 9:19 PM CDT
Moon 12:16 PM CDT (8/6) 11:56 PM CDT (8/6)
Length of Visible Light 14h 28m
Length of Day
13h 35m
Waxing Crescent, 39% of the Moon is Illuminated
Aug 6
Waxing Crescent
Aug 7
First Quarter
Aug 15
Full
Aug 23
Last Quarter
Aug 30
New

Hourly Weather History & Observations

Time (CDT) Temp. Heat Index Dew Point Humidity Pressure Visibility Wind Dir Wind Speed Gust Speed Precip Events Conditions
12:58 AM 75.9 °F - 73.0 °F 91% 29.94 in 10.0 mi Calm Calm - N/A   Clear
1:58 AM 75.0 °F - 72.0 °F 90% 29.93 in 10.0 mi Calm Calm - N/A   Clear
2:58 AM 75.0 °F - 72.0 °F 90% 29.93 in 10.0 mi Calm Calm - N/A   Clear
3:58 AM 73.9 °F - 71.1 °F 91% 29.94 in 9.0 mi Calm Calm - N/A   Clear
4:58 AM 73.9 °F - 71.1 °F 91% 29.94 in 10.0 mi Calm Calm - N/A   Clear
5:58 AM 73.0 °F - 70.0 °F 90% 29.95 in 10.0 mi Calm Calm - N/A   Clear
6:06 AM 73.9 °F - 71.1 °F 91% 29.97 in 10.0 mi Calm Calm - N/A   Scattered Clouds
6:58 AM 73.9 °F - 71.1 °F 91% 29.96 in 9.0 mi Calm Calm - N/A   Partly Cloudy
7:58 AM 78.1 °F - 73.0 °F 84% 29.97 in 10.0 mi Calm Calm - N/A   Clear
8:58 AM 82.9 °F 90.2 °F 75.0 °F 77% 29.98 in 10.0 mi Calm Calm - N/A   Clear
9:58 AM 88.0 °F 97.5 °F 75.0 °F 65% 29.98 in 10.0 mi WSW 6.9 mph - N/A   Clear
10:58 AM 90.0 °F 99.0 °F 73.9 °F 59% 29.97 in 10.0 mi Variable 5.8 mph - N/A   Mostly Cloudy
11:58 AM 90.0 °F 96.9 °F 72.0 °F 55% 29.96 in 10.0 mi West 8.1 mph - N/A   Mostly Cloudy
12:05 PM 91.9 °F 98.4 °F 71.1 °F 50% 29.97 in 10.0 mi NNW 6.9 mph - N/A   Mostly Cloudy
12:58 PM 93.0 °F 101.9 °F 73.0 °F 52% 29.95 in 10.0 mi West 6.9 mph - N/A   Partly Cloudy
1:58 PM 95.0 °F 102.5 °F 71.1 °F 46% 29.93 in 10.0 mi NW 4.6 mph - N/A   Scattered Clouds
2:58 PM 95.0 °F 102.5 °F 71.1 °F 46% 29.91 in 10.0 mi WNW 8.1 mph - N/A   Partly Cloudy
6:58 PM 91.0 °F 100.4 °F 73.9 °F 57% 29.87 in 10.0 mi Calm Calm - N/A   Clear
7:58 PM 84.0 °F 92.6 °F 75.9 °F 76% 29.89 in 10.0 mi Calm Calm - N/A   Clear
8:58 PM 81.0 °F 86.7 °F 75.0 °F 82% 29.90 in 10.0 mi Calm Calm - N/A   Clear
9:58 PM 80.1 °F 85.1 °F 75.0 °F 85% 29.91 in 10.0 mi Calm Calm - N/A   Clear
10:58 PM 80.1 °F 84.5 °F 73.9 °F 81% 29.92 in 10.0 mi SSE 3.5 mph - N/A   Clear
11:58 PM 78.1 °F - 73.9 °F 87% 29.93 in 10.0 mi Calm Calm - N/A   Clear